Other Public Products
Issued by NWS Grand Forks, ND

Home | Current Version | Previous Version | Graphics & Text | Print | Product List | Glossary On
Versions: 1 2 3 4 5 6 7 8 9 10 11 12 13 14 15 16 17 18 19 20 21 22 23 24 25 26 27 28 29 30 31 32 33 34 35 36 37 38 39 40 41 42 43 44 45 46 47 48 49 50
000
FPUS83 KFGF 160431
OPUFGF
PRAIRIE TO PINES WEATHER ROUNDUP
NATIONAL WEATHER SERVICE EASTERN NORTH DAKOTA/GRAND FORKS ND
1000 PM CST FRI DEC 15 2017

 **SATELLITE DATA USED TO AUGMENT SKY COVER AT AUTOMATED STATIONS**
 *****  WEATHER ACROSS EASTERN NORTH DAKOTA  *****

CITY           SKY/WX    TMP DP  RH WIND       PRES   REMARKS
GRAND FORKS    LGT SNOW  22  20  92 E14       29.61S FOG     WCI   9
GRND FORKS AFB LGT SNOW  21  19  93 E10       29.60F FOG     WCI  10
GRND FORKS NWS   N/A     21 N/A N/A E6          N/A  WCI  14
BUXTON           N/A     24  24  99 E7          N/A  WCI  16
DEVILS LAKE    CLOUDY    26  24  92 E9        29.53S WCI  17
FARGO          CLOUDY    30  28  92 SE13      29.58F WCI  20
WAHPETON ARPT  MOCLDY    30  28  93 SE9       29.58F WCI  22
$$

 *****  WEATHER ACROSS CENTRAL AND WESTERN NORTH DAKOTA  *****

CITY           SKY/WX    TMP DP  RH WIND       PRES   REMARKS
JAMESTOWN      CLOUDY    32  30  92 SW5       29.51S
BISMARCK       CLOUDY    41  30  65 W7        29.58R
MINOT          LGT RAIN  40  34  79 W10       29.54R
MINOT AFB      LGT RAIN  38  32  79 W8        29.53R
GARRISON         N/A     39  33  79 W12       29.55R
WILLISTON      LGT RAIN  41  34  75 W10       29.62R
DICKINSON      FAIR      31  22  69 W9        29.58S WCI  23
HETTINGER      FAIR      32  19  58 NW8       29.63R WCI  25
$$

 *****  OTHER OBSERVATIONS NORTHEAST NORTH DAKOTA  *****

CITY           SKY/WX    TMP DP  RH WIND       PRES   REMARKS
WALHALLA       FAIR      16  16 100 SE12G17   29.63S WCI   3
LANGDON        CLOUDY    18  18 100 E18       29.56R WCI   2
CAVALIER       CLOUDY    16  16 100 E10       29.64F FOG     WCI   3
GRAFTON        CLOUDY    18  18 100 E17       29.65F FOG     WCI   2
CANDO          CLOUDY    23  23 100 E8        29.57R WCI  14
FORT TOTTEN      N/A     27  27  99 SE7       29.95S WCI  19
ROLLA          CLOUDY    25  25 100 SE10      29.54R WCI  15
RUGBY          FAIR      27  27 100 E5        29.52R WCI  21
 ***** THE ABOVE OBSERVATIONS ARE NON NWS ARE NOT QUALITY
        CONTROLLED AND MAY MIS-REPORT RAIN FOR SNOW...
$$

 *****  OTHER OBSERVATIONS SOUTHEAST NORTH DAKOTA *****

CITY           SKY/WX    TMP DP  RH WIND       PRES   REMARKS
COOPERSTOWN      N/A     27  27 100 E10       29.55S FOG     WCI  17
VALLEY CITY    CLOUDY    28  28 100 SE7       29.55S WCI  21
OAKES            N/A     32  30  93 SW6       29.54R
GWINNER          N/A     30  30 100 CALM      29.54R
SHEYENNE NWR     N/A     29  29 100 E5        29.95S WCI  24
BUFFALO          N/A     28  27  96 NE13        N/A  WCI  18
WYNDMERE       NOT AVBL
 ***** THE ABOVE OBSERVATIONS ARE NON NWS ARE NOT QUALITY
       CONTROLLED AND MAY MIS-REPORT RAIN FOR SNOW...
$$

  *****  WEATHER ACROSS NORTHERN MINNESOTA  *****

CITY           SKY/WX    TMP DP  RH WIND       PRES   REMARKS
FLAG ISLAND    CLOUDY     3   0  85 E7        29.76R WCI  -9
WARROAD        LGT SNOW  10   7  85 E12       29.73R WCI  -4
ROSEAU         CLOUDY    12   9  85 E10       29.71R FOG     WCI  -1
HALLOCK        LGT SNOW  18  14  86 E17       29.65F WCI   2
THF RVR FALLS  LGT SNOW  16  12  86 E14       29.65F FOG     WCI   1
HALSTAD        NOT AVBL
FOSSTON        CLOUDY    18  14  86 E8        29.63S FOG     WCI   7
BAUDETTE       CLOUDY     8   4  83 E9        29.72S WCI  -5
WASKISH        LGT SNOW  12  10  92 E8        29.71S WCI   1
CROOKSTON      LGT SNOW  19  18  93 E10       29.64S WCI   8
$$
  *****  WEATHER ACROSS CENTRAL AND WEST MINNESOTA  *****

CITY           SKY/WX    TMP DP  RH WIND       PRES   REMARKS
BEMIDJI        LGT SNOW  15  13  90 E8        29.66S WCI   4
PARK RAPIDS    LGT SNOW  18  15  88 E8        29.63F FOG     WCI   8
WADENA         LGT SNOW  21  19  93 E8        29.61F WCI  12
DETROIT LAKES  LGT SNOW  25  23  93 SE8       29.60F WCI  16
MOORHEAD       MOCLDY    28  27  93 CALM      29.59F
FERGUS FALLS   CLOUDY    28  28 100 SE9       29.61F WCI  20
ELBOW LAKE     MOCLDY    30  28  94 SE9       29.58F FOG     WCI  21
MORRIS MN      FAIR      30  28  93 SE9       29.57F WCI  22
STAPLES        LGT SNOW  19  18  93 E5        29.64F WCI  13
WHEATON        FAIR      28  27  93 SE9       29.59S WCI  20
$$
  *****  WEATHER ELSEWHERE ACROSS MINNESOTA  *****

CITY           SKY/WX    TMP DP  RH WIND       PRES   REMARKS
DULUTH         FLURRIES  14   9  80 SE5       29.72S WCI   6
INTRNTL FALLS  FAIR       4  -1  80 E7        29.76S WCI  -8
ELY            FAIR      -4  -8  84 CALM      29.75S
CLOQUET        LGT SNOW  14   9  79 CALM      29.72F
BRAINERD       LGT SNOW  20  17  88 VRB6      29.67F FOG     WCI  12
HIBBING        CLOUDY    11   5  77 E3        29.72F
ALEXANDRIA     CLOUDY    27  26  96 SE12      29.60F WCI  17
SAINT CLOUD    LGT SNOW  23  21  92 E7        29.66F FOG     WCI  15
MINNEAPOLIS    LGT SNOW  29  28  96 E9        29.69F FOG     WCI  20
$$

  *****  WEATHER ACROSS SOUTH DAKOTA  *****

CITY           SKY/WX    TMP DP  RH WIND       PRES   REMARKS
SIOUX FALLS    CLOUDY    39  28  64 SW7       29.62F
BROOKINGS      FAIR      34  26  72 S7        29.59F
WATERTOWN      CLOUDY    32  29  88 S8        29.56F WCI  25
HURON          FAIR      38  29  70 SW8       29.60R
SISSETON         N/A     33  30  88 SE6       29.55F
ABERDEEN       FAIR      30  25  81 S8        29.56S WCI  22
MITCHELL       FAIR      41  29  62 SW9       29.62F
PIERRE         FAIR      42  23  46 W12       29.60F
MOBRIDGE       FAIR      39  24  55 NW10      29.55F
RAPID CITY     FAIR      38  15  39 SW5       29.67S
$$

  *****  SOME WEATHER IN NEARBY STATES *****

CITY           SKY/WX    TMP DP  RH WIND       PRES   REMARKS
GLASGOW MT     CLOUDY    38  32  79 NW15      29.72R
GREAT FALLS MT CLOUDY    35  27  72 N14       29.85R
CHEYENNE WY    FAIR      45   1  16 W20       29.82F
SCOTTSBLUFF NE FAIR      48   8  19 W12       29.76F
OMAHA NE       CLOUDY    34  23  64 SE10      29.76F
DES MOINES IA  FAIR      39  23  52 S10       29.78F
DAVENPORT IA   CLOUDY    37  21  52 S14       29.88F
CHICAGO IL     CLOUDY    35  21  56 SW12      29.88F
EAU CLAIRE WI  LGT SNOW  22  20  92 E3        29.76S VSB 3/4
LA CROSSE WI   LGT SNOW  31  29  92 E3        29.78F FOG
$$

  *****  SOME NATIONAL WEATHER *****

CITY           SKY/WX    TMP DP  RH WIND       PRES   REMARKS
LA GUARDIA NY  FAIR      26  17  68 W13       29.91F WCI  15
RALEIGH NC     FAIR      33  24  69 W3        30.10R
ATLANTA GA     FAIR      31  24  75 W7        30.20R WCI  24
NEW ORLEANS LA CLOUDY    48  35  60 N10       30.27S
OKLAHOMA CITY  FAIR      36  22  56 S10       30.09S
ALBUQUERQUE NM FAIR      27   9  46 SE7       30.13S WCI  19
SALT LAKE CITY CLOUDY    33  28  81 SE3       30.00F
LOS ANGELES CA FAIR      64  41  42 W6        29.97F
BOISE ID       LGT SNOW  27  25  92 NW6       30.12F FOG     WCI  20
SEATTLE WA     LGT RAIN  42  41  96 S5        30.22S FOG
$$

*** WEATHER ACROSS MANITOBA...SASKATCHEWAN AND ONTARIO ***
                ***ONTARIO***

CITY           SKY/WX    TMP DP  RH WIND       PRES   REMARKS
GERALDTON      CLEAR    -17 -22  76 NW3       29.84R
THUNDER BAY    CLEAR     -8 -11  84 CALM      29.88R
SIOUX LOOKOUT  FLURRIES -11 -17  77 E5        29.83R WCI -23
TORONTO        PTCLDY    23  14  68 W22G30    29.77R WCI   8
BIG TROUT LK   MOCLDY   -13 -18  77 NW6       29.91R WCI -27
PICKLE LAKE    NOT AVBL
DRYDEN         MOCLDY   -13 -17  84 NE7       29.80R WCI -29
KENORA         CLOUDY    -6 -11  77 E10G17    29.76S WCI -23
$$
                *** MANITOBA***

CITY           SKY/WX    TMP DP  RH WIND       PRES   REMARKS
BRANDON        FLURRIES  14  12  92 E16       29.58R WCI  -2
DAUPHIN        CLOUDY    12   9  85 SE16G22   29.62R WCI  -4
ISLAND LAKE    CLEAR    -15 -20  76 SE5       29.90R WCI -27
PILOT MOUND      N/A     18  16  93 E13         N/A  WCI   4
THE PAS        LGT SNOW   1  -4  78 SE10G17   29.65S VSB 1   WCI -14
THOMPSON       PTCLDY   -15 -22  70 E5        29.85S WCI -27
WINNIPEG       LGT SNOW  10   7  85 E14       29.70S DRFTSNOWWCI  -5
LYNN LAKE      CLOUDY   -17 -20  83 E7        29.72S WCI -33
CHURCHILL      LGT SNOW -18 -24  76 W9        29.97R FOG     WCI -38
GILLAM         CLEAR    -26 -33  68 SW3       29.94R
$$
                ***SASKATCHEWAN***

CITY           SKY/WX    TMP DP  RH WIND       PRES   REMARKS
ESTEVAN        CLOUDY    37  32  81 NW15G22   29.57R
KINDERSLEY     PTCLDY    28  23  80 NW12G18   29.71R WCI  18
LLOYDMINSTER   CLEAR     30  23  74 W17       29.65R WCI  18
PRINCE ALBERT  LGT SNOW  21  18  86 VRB2      29.55R
REGINA         FLURRIES  36  30  80 NW17G25   29.58R
YORKTON        FLURRIES  19  19 100 SE9       29.50S W



USA.gov is the U.S. government's official web portal to all federal, state and local government web resources and services.